DIRECTV 11 (32729 NORAD) Tracking and Keplerian Element Data

This shows tracking and keplerian element data for the satellite.

Feedback or suggestion? Click here.




ElementValue
Catalog32729
NameDIRECTV 11
Epoch Orbit3941
Epoch Day345.48948192
Epoch Year2018
RAAN104.8364
Inclination0.0092
Eccentricity3.16E-05
Argument of Perigee62.7188
Mean Anonmoly349.6369
Mean Motion1.00272222
Decay Rate-1.2E-06
L11 32729U 08013A 18345.48948192 -.00000120 00000-0 00000+0 0 9994
L22 32729 0.0092 104.8364 0000316 62.7188 349.6369 1.00272222 39419

Live tracking and technical data element details for DIRECTV 11 (NORAD 32729). DIRECTV 11 can be tracked NOW for your location showing map with azimuth and elevation plus other details from your city location.

Track the satellite on the map from your city or location and see movement details for azimuth, elevation, latitude, longitude, range, height, and movement on the map or in text.







IsCatalogInMostPopularTable: catalog: 32729, numindb: 57
Update: records affected: 1



GetName: 32729 DIRECTV 11

Hit Count: updated at: Thu, 13 Dec 2018 03:36:43 GMT